This is the latest recevied weather packets stored in our database for station/object KE5YIM-13. If no packets are shown the sender has not sent any weather packets the latest 1 day(s).
| Time | Temp. | Humidity | Pressure | Rain* | Wind** | Luminosity | Snow |
|---|---|---|---|---|---|---|---|
| 1778033694 | 17.22° C | 72% | 1012.1 hPa | 0 mm | - | 0 W/m² | - |
| 1778033391 | 17.22° C | 71% | 1012 hPa | 0 mm | - | 0 W/m² | - |
| 1778033089 | 17.22° C | 72% | 1012 hPa | 0 mm | - | 0 W/m² | - |
| 1778032483 | 17.22° C | 71% | 1011.8 hPa | 0 mm | - | 0 W/m² | - |
| 1778032180 | 17.22° C | 71% | 1011.9 hPa | 0 mm | - | 0 W/m² | - |
| 1778031877 | 17.22° C | 72% | 1011.8 hPa | 0 mm | - | 0 W/m² | - |
| 1778031573 | 17.22° C | 72% | 1011.8 hPa | 0 mm | - | 0 W/m² | - |
| 1778031272 | 17.22° C | 71% | 1011.7 hPa | 0 mm | - | 0 W/m² | - |
| 1778030664 | 17.22° C | 70% | 1011.4 hPa | 0 mm | - | 0 W/m² | - |
| 1778030361 | 17.78° C | 70% | 1011.7 hPa | 0 mm | - | 0 W/m² | - |
| 1778029755 | 17.22° C | 70% | 1011.5 hPa | 0 mm | - | 0 W/m² | - |
| 1778029454 | 17.78° C | 70% | 1011.4 hPa | 0 mm | - | 0 W/m² | - |
| 1778029150 | 17.22° C | 70% | 1011.3 hPa | 0 mm | - | 0 W/m² | - |
| 1778028848 | 17.78° C | 70% | 1011.3 hPa | 0 mm | - | 0 W/m² | - |
| 1778028241 | 17.22° C | 70% | 1010.9 hPa | 0 mm | - | 0 W/m² | - |
| 1778027633 | 17.22° C | 71% | 1011 hPa | 0 mm | - | 0 W/m² | - |
| 1778027026 | 17.22° C | 70% | 1010.9 hPa | 0 mm | - | 0 W/m² | - |
| 1778026419 | 17.78° C | 69% | 1011.1 hPa | 0 mm | - | 0 W/m² | - |
| 1778026116 | 17.78° C | 68% | 1010.7 hPa | 0 mm | - | 0 W/m² | - |
| 1778025814 | 17.78° C | 67% | 1010.6 hPa | 0 mm | - | 1 W/m² | - |
| 1778020665 | 20° C | 63% | 1010.1 hPa | 0 mm | - | 72 W/m² | - |
| 1778016120 | 20.56° C | 63% | 1009.8 hPa | 0 mm | - | 301 W/m² | - |
| 1778015514 | 20.56° C | 62% | 1009.8 hPa | 0 mm | - | 341 W/m² | - |
| 1778013999 | 21.11° C | 61% | 1009.8 hPa | 0 mm | - | 275 W/m² | - |
| 1778013091 | 21.11° C | 62% | 1009.9 hPa | 0 mm | - | 432 W/m² | - |
* Rain latest hour (hover to see other rain measurements)
** Current wind speed in m/s (hover to see current wind gust speed)